Temperature
7 7 7 7 7 7 7 7 7 8 8 8 8 8 8 8 8 8 8 8 8 8 8 8 8 8 8 8 8 8 8 9 9 9 9 10 10 10
7 7 6 6 7 7 6 7 7 7 7 7 8 8 8 8 8 7 7 7 7 7 7 7 7 7 7 7 7 8 8 8 8 8 9 9 9 9
6 6 5 5 5 6 6 6 6 6 7 7 7 7 7 7 7 7 7 7 7 7 7 6 6 6 6 6 7 7 7 7 8 8 8 8 8 8
6 6 5 5 4 3 4 5 5 6 6 6 6 7 7 7 7 7 7 7 7 7 6 6 6 6 6 6 6 6 6 6 7 7 7 7 7 7
4 4 4 4 1 2 3 4 4 5 5 5 6 6 6 6 7 7 6 6 6 6 6 6 5 5 5 5 5 5 5 5 6 6 6 6 6 7
1 1 1 1 1 1 2 2 3 4 4 5 5 5 5 6 6 6 6 5 5 5 5 5 5 5 5 5 5 5 4 4 4 4 5 5 5 6
-1 -1 -1 -1 -1 -0 0 1 2 2 3 3 4 4 4 4 5 5 5 5 4 4 4 4 4 4 4 4 4 4 4 3 3 3 4 4 4 5
-3 -3 -3 -2 -2 -2 -1 -1 -0 0 1 1 1 2 3 3 3 4 4 4 4 3 3 3 3 4 4 4 3 3 3 3 3 3 3 3 3 4
-5 -5 -5 -4 -4 -3 -3 -2 -2 -2 -2 -1 -1 -0 0 1 2 2 2 3 3 2 3 3 3 3 3 2 2 2 2 2 2 2 2 2 1 1
-7 -7 -6 -6 -6 -5 -5 -4 -4 -4 -3 -3 -2 -2 -2 -1 -1 -0 1 1 1 1 1 2 1 2 2 1 1 2 2 1 1 1 1 1 1 0
-8 -8 -8 -8 -8 -7 -6 -6 -5 -5 -5 -5 -5 -5 -4 -3 -3 -2 -1 -0 -0 -1 -0 -0 0 1 1 0 0 1 1 0 1 1 0 0 1 1
-9 -9 -9 -9 -9 -9 -8 -7 -7 -7 -6 -6 -6 -6 -6 -5 -5 -4 -4 -3 -3 -3 -3 -2 -1 -1 -1 -0 0 -0 -0 -0 -0 -0 -0 0 0 1
-9 -10 -10 -10 -10 -10 -9 -9 -8 -8 -7 -7 -7 -7 -7 -7 -7 -6 -5 -5 -5 -5 -4 -4 -3 -3 -2 -1 -1 -1 -1 -1 -1 -1 -1 -0 0 0
-10 -10 -10 -11 -10 -10 -10 -10 -9 -9 -9 -8 -9 -9 -8 -8 -8 -7 -7 -6 -6 -6 -6 -5 -4 -4 -4 -3 -3 -1 -1 -2 -2 -1 -1 -1 -1 -1
-10 -10 -11 -11 -11 -11 -11 -10 -10 -9 -9 -9 -9 -10 -9 -9 -9 -8 -8 -7 -7 -7 -7 -7 -6 -6 -6 -6 -5 -4 -4 -3 -3 -3 -2 -2 -2 -2
-10 -11 -11 -12 -11 -11 -11 -11 -11 -11 -11 -11 -11 -11 -10 -10 -10 -9 -9 -8 -8 -9 -9 -9 -9 -8 -8 -7 -7 -6 -7 -6 -5 -4 -4 -3 -2 -3
-11 -11 -12 -12 -12 -12 -12 -12 -12 -12 -12 -12 -12 -12 -11 -11 -11 -10 -10 -10 -9 -9 -9 -9 -9 -9 -9 -8 -7 -7 -7 -7 -7 -6 -5 -4 -3 -3
-12 -12 -13 -13 -13 -13 -13 -13 -13 -13 -13 -13 -13 -13 -13 -12 -12 -12 -11 -11 -11 -10 -11 -11 -10 -10 -9 -9 -9 -8 -8 -7 -7 -6 -6 -6 -4 -3
-13 -14 -14 -14 -14 -14 -15 -15 -15 -15 -15 -14 -14 -14 -14 -14 -13 -13 -13 -12 -12 -12 -12 -12 -12 -12 -11 -10 -10 -9 -8 -8 -7 -7 -6 -6 -6 -4
-14 -15 -15 -15 -15 -15 -15 -15 -15 -15 -15 -15 -15 -15 -15 -15 -15 -14 -14 -13 -13 -13 -12 -12 -13 -13 -13 -13 -13 -9 -9 -9 -9 -8 -7 -7 -6 -6
-15 -15 -15 -16 -16 -16 -16 -16 -16 -16 -16 -16 -16 -16 -16 -16 -15 -15 -15 -14 -15 -14 -13 -12 -13 -14 -14 -14 -13 -10 -9 -9 -9 -10 -10 -9 -8 -7
-16 -16 -16 -16 -16 -16 -16 -16 -16 -16 -16 -17 -17 -16 -16 -16 -16 -16 -15 -15 -15 -15 -14 -13 -13 -14 -13 -13 -13 -12 -10 -9 -9 -9 -9 -10 -10 -10
-16 -16 -16 -16 -16 -16 -16 -17 -17 -17 -17 -17 -17 -17 -17 -16 -16 -16 -16 -16 -15 -15 -14 -14 -13 -14 -13 -13 -13 -12 -11 -10 -10 -10 -8 -8 -9 -9
Wind_Speed
7 5 1 1 3 3 3 4 5 4 4 3 2 2 2 5 10 12 10 12 12 11 10 10 9 7 5 4 4 4 5 5 6 7 9 10 11 11
7 7 5 4 2 1 2 2 3 5 4 5 5 3 3 3 9 11 11 14 14 12 11 11 9 7 4 3 2 2 3 5 6 8 9 10 12 12
7 8 6 4 5 4 1 2 3 4 4 4 3 2 3 4 3 6 8 10 12 13 13 12 9 7 5 3 0 2 3 4 6 8 10 11 11 12
7 7 5 7 6 5 3 2 0 3 4 5 4 3 3 4 5 5 4 8 9 14 17 14 10 8 6 4 3 2 1 2 3 6 8 9 10 12
8 8 7 7 2 1 4 3 3 1 2 4 4 2 2 1 2 3 2 2 3 10 16 14 12 9 7 6 5 3 1 2 3 5 7 7 9 12
9 9 8 6 5 4 4 4 4 3 1 1 2 1 1 2 2 2 3 3 3 3 4 9 12 10 9 8 6 4 2 2 4 6 7 9 9 11
11 10 10 11 12 8 6 6 6 4 3 2 1 2 2 2 1 1 3 3 3 3 2 2 2 4 4 3 3 5 6 9 11 11 10 10 10 11
10 9 9 11 12 12 12 11 10 7 4 3 2 2 2 2 2 2 2 3 3 1 1 1 1 1 1 4 8 13 15 13 11 9 10 10 12 13
7 7 7 8 8 7 8 10 12 14 11 7 5 4 3 4 3 2 2 1 2 4 2 1 2 1 3 8 15 16 13 11 11 12 11 11 10 12
7 7 8 8 8 9 6 9 10 10 11 9 7 4 2 3 3 2 2 2 4 5 5 1 3 3 3 6 12 14 13 12 12 11 10 10 11 12
7 7 7 7 10 12 7 7 8 8 10 11 11 11 12 9 3 2 3 2 2 2 5 2 2 3 3 1 6 12 12 10 11 10 9 9 10 10
6 8 10 8 9 11 6 5 7 7 6 8 10 13 13 14 16 9 4 2 2 1 4 3 2 3 3 2 3 7 9 11 11 9 10 10 9 7
2 3 4 7 9 10 9 7 9 7 6 7 7 8 7 8 8 8 7 5 3 2 4 3 1 2 2 4 4 2 3 5 6 6 9 9 11 9
1 2 3 8 9 10 11 13 12 9 6 6 7 7 7 6 6 6 7 7 5 3 5 4 1 2 2 2 4 3 3 4 3 1 3 8 9 9
1 1 4 8 9 10 12 13 11 8 7 7 6 6 6 5 6 5 6 7 6 7 9 7 3 2 2 3 3 3 4 4 2 2 3 3 4 4
1 3 4 6 8 8 8 8 7 6 6 6 5 4 5 5 5 6 5 5 3 4 6 9 7 3 2 3 5 4 4 4 4 4 4 4 4 6
4 3 3 4 4 4 4 5 5 5 5 5 5 5 5 5 5 5 5 4 3 4 4 5 7 6 4 4 5 5 4 4 4 4 5 6 6 5
4 4 4 3 2 2 3 3 3 3 3 4 4 4 3 3 3 3 3 3 3 3 3 4 4 4 3 4 5 3 4 3 4 6 6 7 8 6
6 4 2 1 1 1 1 1 1 1 1 0 1 0 1 2 3 3 3 3 4 4 3 3 3 3 3 3 5 6 5 7 8 8 8 7 9 10
4 3 2 2 2 2 3 3 3 3 2 2 2 3 3 2 2 3 3 3 4 5 4 2 2 3 3 5 6 7 11 10 8 8 9 10 11 14
2 2 2 3 3 3 3 3 4 4 4 3 4 4 4 3 4 4 4 7 6 4 5 5 5 8 5 5 6 6 6 10 12 10 9 10 11 10
3 4 4 4 4 4 4 4 4 5 4 4 5 5 5 4 5 5 5 5 5 6 7 6 6 5 3 5 8 9 9 8 11 17 18 16 11 8
5 5 5 5 5 5 5 5 5 5 5 5 5 5 5 5 6 6 6 6 6 6 7 7 5 4 6 7 9 9 12 12 9 9 12 18 21 24
Wind_Direction
93 71 24 226 201 181 176 163 159 187 232 249 242 212 171 162 161 153 156 163 156 151 149 143 133 121 101 79 61 37 14 8 10 8 358 353 351 350
99 78 40 349 342 113 191 189 164 167 205 227 232 242 192 186 175 163 171 171 169 165 160 154 147 141 130 98 64 40 11 8 14 15 5 359 352 353
93 94 85 30 2 6 11 201 190 163 186 227 249 263 190 178 162 177 174 163 173 178 170 166 162 157 155 163 203 7 7 2 358 359 356 353 351 351
98 91 78 63 22 346 9 24 125 197 181 211 234 226 220 198 171 184 185 173 182 186 176 177 175 174 184 196 216 255 298 319 339 347 349 345 344 344
72 83 81 95 158 6 34 35 32 17 189 189 219 221 251 15 108 96 79 101 191 191 174 186 180 182 186 175 165 156 196 251 289 311 311 309 320 330
60 65 75 96 112 95 61 35 34 43 44 164 148 125 56 360 59 111 112 77 41 27 115 141 143 139 126 121 127 120 96 11 348 342 330 313 312 321
40 39 44 55 66 75 73 54 42 36 34 36 76 98 66 43 70 120 140 134 74 21 20 42 92 102 96 95 112 107 95 86 72 57 38 12 353 339
30 27 33 40 39 42 53 59 59 56 48 47 26 54 68 47 15 47 112 163 155 59 86 178 289 104 57 75 94 94 89 79 66 47 29 12 3 355
36 26 29 25 40 30 43 66 60 59 62 56 52 36 28 24 16 62 77 36 92 359 4 54 353 60 42 78 94 85 74 62 53 41 24 12 358 346
43 32 25 9 24 29 30 71 69 65 61 59 60 47 42 12 12 7 57 75 86 42 6 69 2 346 13 62 72 64 54 49 40 25 7 352 348 342
35 25 35 5 32 39 38 64 65 46 55 59 70 72 68 61 61 52 29 60 95 40 8 24 0 330 326 333 37 36 37 34 18 5 349 338 337 339
31 19 18 23 42 55 43 45 64 44 50 66 65 63 54 50 50 50 32 60 102 102 7 9 5 340 303 307 354 21 30 12 355 350 346 346 353 2
37 9 347 29 42 45 49 47 55 44 55 72 67 58 50 45 42 40 38 40 49 67 9 7 348 345 328 313 320 346 12 346 333 338 350 346 342 338
61 347 357 46 43 47 53 48 47 46 48 66 65 53 45 43 40 34 32 35 36 40 14 7 10 360 328 304 292 318 332 300 292 290 322 320 321 320
179 132 51 60 57 47 51 48 43 40 47 58 56 44 31 36 40 22 18 19 27 38 26 21 13 340 281 267 277 293 308 286 275 300 290 272 269 278
9 55 66 81 72 59 52 46 39 46 56 53 45 30 27 24 30 16 5 8 13 18 4 9 17 6 319 279 274 266 252 266 293 289 268 262 266 291
127 100 83 76 69 58 56 49 44 46 47 44 42 30 28 17 12 10 3 1 360 350 343 342 346 333 282 257 266 275 271 260 260 278 303 297 278 259
105 106 97 85 68 46 36 42 40 48 41 32 39 24 17 356 343 353 352 340 321 313 318 327 337 334 318 279 221 266 288 281 302 306 301 292 292 286
55 59 63 85 142 177 186 192 205 191 175 149 155 242 304 323 343 335 330 328 309 299 295 307 331 335 339 315 295 299 309 311 307 300 294 290 290 297
34 28 3 327 268 233 220 217 228 237 230 218 223 237 250 263 273 274 289 283 287 291 298 291 271 284 294 306 299 287 287 282 287 292 297 297 294 297
359 1 349 332 304 274 258 243 232 240 250 232 235 236 242 243 260 264 269 292 299 296 291 277 266 295 303 295 279 281 276 279 284 282 287 294 300 300
286 292 294 290 287 278 269 259 253 260 261 242 247 248 247 241 248 258 255 260 262 256 270 275 271 267 253 273 282 286 289 288 284 287 284 277 276 284
254 258 266 271 273 267 260 259 253 254 253 250 252 249 242 242 244 242 245 248 252 258 265 273 266 248 259 267 277 282 285 290 294 296 289 288 285 283
Height
1421 1426 1430 1432 1435 1436 1437 1439 1441 1442 1445 1447 1449 1452 1454 1456 1458 1460 1463 1466 1467 1470 1472 1474 1476 1478 1479 1479 1480 1481 1483 1485 1486 1486 1488 1488 1489 1489
1414 1420 1425 1429 1431 1432 1433 1434 1436 1439 1441 1444 1447 1448 1451 1453 1455 1457 1460 1462 1465 1467 1469 1471 1472 1474 1476 1476 1477 1478 1480 1481 1482 1481 1482 1483 1485 1485
1410 1414 1419 1423 1425 1427 1428 1430 1432 1434 1436 1440 1444 1445 1447 1449 1452 1456 1459 1460 1462 1465 1467 1469 1470 1471 1473 1473 1475 1475 1476 1476 1476 1477 1477 1478 1479 1480
1407 1411 1413 1414 1420 1423 1423 1424 1426 1429 1431 1434 1439 1441 1443 1445 1448 1452 1455 1457 1459 1462 1464 1466 1467 1468 1469 1470 1472 1472 1472 1473 1473 1474 1473 1473 1474 1474
1403 1405 1407 1409 1417 1418 1418 1419 1420 1424 1426 1429 1432 1436 1438 1439 1443 1446 1449 1452 1455 1458 1460 1462 1463 1465 1466 1467 1468 1469 1469 1470 1470 1469 1469 1470 1470 1470
1399 1400 1401 1405 1408 1411 1412 1413 1415 1417 1420 1423 1427 1429 1431 1433 1437 1440 1444 1446 1450 1453 1455 1457 1459 1460 1462 1463 1464 1464 1465 1465 1464 1464 1464 1465 1466 1465
1395 1396 1398 1400 1402 1405 1406 1407 1409 1412 1415 1418 1421 1424 1425 1428 1432 1435 1438 1441 1444 1447 1448 1451 1455 1456 1456 1458 1459 1459 1459 1459 1458 1458 1459 1461 1460 1459
1396 1398 1398 1398 1400 1402 1402 1404 1406 1409 1411 1414 1416 1419 1421 1423 1426 1429 1433 1436 1438 1442 1444 1446 1450 1451 1452 1453 1452 1452 1452 1453 1454 1454 1453 1453 1453 1452
1399 1400 1399 1398 1399 1400 1401 1402 1403 1405 1408 1410 1412 1413 1416 1418 1421 1424 1426 1429 1431 1434 1438 1440 1443 1446 1447 1446 1446 1446 1447 1448 1448 1447 1447 1448 1448 1446
1401 1401 1400 1399 1400 1400 1401 1401 1402 1405 1406 1407 1409 1410 1411 1412 1416 1419 1421 1425 1426 1430 1433 1435 1438 1440 1441 1440 1440 1440 1441 1441 1441 1441 1442 1442 1441 1441
1402 1401 1400 1401 1400 1399 1400 1401 1401 1402 1404 1405 1407 1408 1409 1411 1413 1415 1417 1420 1421 1425 1427 1430 1432 1434 1435 1435 1436 1435 1435 1435 1435 1436 1436 1435 1434 1433
1403 1403 1403 1403 1402 1400 1400 1399 1398 1400 1401 1403 1405 1406 1408 1409 1410 1412 1414 1417 1417 1420 1422 1425 1426 1428 1430 1429 1429 1428 1429 1429 1429 1429 1428 1427 1426 1424
1405 1404 1404 1403 1402 1401 1399 1398 1397 1400 1401 1402 1404 1406 1408 1408 1409 1410 1412 1414 1415 1416 1418 1420 1421 1422 1423 1423 1423 1423 1423 1424 1423 1422 1420 1419 1419 1419
1405 1404 1402 1402 1402 1402 1400 1399 1400 1401 1401 1402 1403 1405 1407 1407 1408 1409 1410 1411 1412 1413 1414 1416 1416 1416 1416 1416 1417 1418 1418 1418 1417 1416 1415 1415 1415 1414
1404 1404 1404 1403 1403 1403 1402 1401 1401 1401 1401 1402 1403 1404 1405 1406 1407 1407 1408 1409 1409 1409 1411 1411 1412 1412 1413 1413 1413 1413 1412 1412 1410 1409 1409 1409 1408 1407
1404 1403 1404 1404 1404 1404 1403 1402 1402 1402 1402 1403 1403 1403 1404 1404 1405 1405 1406 1407 1408 1409 1409 1409 1409 1409 1409 1409 1409 1408 1408 1406 1405 1404 1403 1402 1402 1400
1402 1403 1403 1404 1404 1404 1402 1401 1401 1402 1402 1402 1402 1402 1402 1403 1403 1403 1404 1405 1405 1405 1405 1406 1405 1405 1404 1404 1403 1402 1400 1400 1399 1397 1396 1394 1394 1394
1401 1402 1402 1403 1404 1403 1403 1402 1402 1402 1401 1400 1400 1400 1400 1401 1401 1401 1402 1402 1401 1401 1401 1401 1401 1400 1400 1400 1399 1397 1396 1394 1393 1392 1390 1387 1385 1386
1400 1401 1402 1402 1402 1402 1402 1401 1401 1400 1399 1399 1399 1398 1398 1398 1398 1398 1398 1398 1398 1397 1397 1396 1396 1394 1393 1393 1393 1394 1391 1389 1387 1385 1384 1381 1377 1376
1402 1402 1401 1401 1401 1401 1400 1399 1398 1398 1397 1397 1397 1396 1396 1395 1395 1395 1394 1393 1393 1392 1392 1392 1392 1391 1389 1389 1387 1387 1387 1385 1382 1379 1377 1374 1372 1370
1402 1401 1401 1400 1399 1398 1397 1397 1396 1395 1394 1394 1393 1393 1392 1391 1390 1390 1389 1388 1388 1388 1387 1387 1387 1387 1386 1385 1383 1380 1381 1380 1378 1375 1372 1369 1366 1363
1401 1399 1398 1397 1396 1395 1394 1393 1393 1392 1391 1390 1389 1388 1387 1386 1385 1385 1385 1385 1384 1383 1382 1382 1383 1383 1382 1379 1376 1374 1373 1373 1372 1370 1369 1368 1364 1359
1400 1398 1396 1394 1393 1391 1390 1389 1388 1387 1386 1385 1384 1384 1383 1382 1381 1381 1380 1379 1378 1377 1377 1377 1377 1376 1375 1373 1371 1369 1368 1366 1365 1364 1364 1364 1361 1358